This is the latest recevied weather packets stored in our database for station/object N3TTT-13. If no packets are shown the sender has not sent any weather packets the latest 10 day(s).
| Time | Temp. | Humidity | Pressure | Rain* | Wind** | Luminosity | Snow |
|---|---|---|---|---|---|---|---|
| 1777735181 | 11.67° C | 72% | 1013.3 hPa | 0 mm | - | 262 W/m² | - |
| 1777734878 | 11.67° C | 73% | 1013.3 hPa | 0 mm | - | 223 W/m² | - |
| 1777734576 | 11.67° C | 72% | 1013.5 hPa | 0 mm | - | 225 W/m² | - |
| 1777734272 | 11.67° C | 72% | 1013.8 hPa | 0 mm | - | 234 W/m² | - |
| 1777733968 | 11.67° C | 70% | 1013.8 hPa | 0 mm | - | 232 W/m² | - |
| 1777733666 | 11.67° C | 69% | 1013.7 hPa | 0 mm | - | 208 W/m² | - |
| 1777733362 | 12.22° C | 69% | 1013.4 hPa | 0 mm | - | 209 W/m² | - |
| 1777733059 | 12.22° C | 68% | 1013.5 hPa | 0 mm | - | 236 W/m² | - |
| 1777732754 | 12.22° C | 70% | 1013.5 hPa | 0 mm | - | 271 W/m² | - |
| 1777732452 | 12.22° C | 69% | 1013.4 hPa | 0 mm | - | 268 W/m² | - |
| 1777732149 | 11.67° C | 70% | 1013.5 hPa | 0 mm | - | 261 W/m² | - |
| 1777731846 | 11.67° C | 70% | 1013.6 hPa | 0 mm | - | 225 W/m² | - |
| 1777731543 | 11.67° C | 71% | 1013.6 hPa | 0 mm | - | 241 W/m² | - |
| 1777731241 | 11.67° C | 70% | 1013.6 hPa | 0 mm | - | 221 W/m² | - |
| 1777730938 | 11.67° C | 73% | 1013.6 hPa | 0 mm | - | 245 W/m² | - |
| 1777730636 | 11.67° C | 71% | 1013.7 hPa | 0 mm | - | 230 W/m² | - |
| 1777730332 | 11.67° C | 73% | 1013.5 hPa | 0 mm | - | 295 W/m² | - |
| 1777730029 | 11.67° C | 73% | 1013.6 hPa | 0 mm | - | 234 W/m² | - |
| 1777729725 | 11.11° C | 73% | 1013.8 hPa | 0 mm | - | 205 W/m² | - |
| 1777729422 | 11.11° C | 73% | 1013.7 hPa | 0 mm | - | 193 W/m² | - |
| 1777729118 | 11.11° C | 73% | 1013.6 hPa | 0 mm | - | 206 W/m² | - |
| 1777728815 | 11.11° C | 72% | 1013.6 hPa | 0 mm | - | 214 W/m² | - |
| 1777728512 | 11.11° C | 73% | 1013.6 hPa | 0 mm | - | 185 W/m² | - |
| 1777728209 | 11.11° C | 73% | 1013.6 hPa | 0 mm | - | 203 W/m² | - |
| 1777727906 | 11.11° C | 74% | 1013.8 hPa | 0 mm | - | 208 W/m² | - |
* Rain latest hour (hover to see other rain measurements)
** Current wind speed in m/s (hover to see current wind gust speed)